Location: Waco, TX
(31.5480°N, 97.1670°W)
Time: 08:29:25
(UTC-05:00)

ISS - Pass Details

Date: 20 May 2018
Orbit: 402 x 407 km, 51.6° (Epoch: 27 May)

Event Time Altitude Azimuth Distance (km) Brightness Sun altitude
Rises 07:12:48 0° 291° (WNW) 2,311 -0.5 7.8°
Reaches altitude 10° 07:15:52 10° 259° (W) 1,448 -1.6 8.4°
Maximum altitude 07:17:14 12° 234° (SW) 1,323 -1.8 8.7°
Drops below altitude 10° 07:18:36 10° 209° (SSW) 1,445 -1.4 9.0°
Sets 07:21:40 0° 177° (S) 2,300 -0.2 9.6°
